Location: Unspecified
(0.0000°N, 0.0000°E)
Time: 16:02:04
(UTC+02:00)

Transit 2A - Visible Passes

Search period start: 21 August 2014 00:00
Search period end: 31 August 2014 00:00
Orbit: 602 x 961 km, 66.7° (Epoch: 20 August)

Date Brightness Start Highest point End Pass type
(mag) Time Alt. Az. Time Alt. Az. Time Alt. Az.
21 Aug 8.8 05:56:03 10° NNE 05:59:44 18° ENE 06:03:37 10° ESE visible
22 Aug 9.3 05:25:17 10° ENE 05:26:20 11° ENE 05:27:24 10° E visible
22 Aug 6.3 07:03:45 10° NNW 07:09:09 55° WSW 07:15:05 10° S visible
23 Aug 6.1 06:30:10 10° NNW 06:35:41 88° WSW 06:41:46 10° SSE visible
24 Aug 6.7 05:56:51 10° N 06:02:15 58° ENE 06:08:11 10° SSE visible
25 Aug 7.7 05:29:44 34° E 05:29:44 34° E 05:34:17 10° SE visible
25 Aug 7.5 07:10:32 17° W 07:11:58 18° WSW 07:15:59 10° SSW visible
26 Aug 7.6 06:40:50 22° SSW 06:40:50 22° SSW 06:43:36 10° S visible
27 Aug 8.5 06:10:16 12° S 06:10:16 12° S 06:10:44 10° S visible
